UAL84 EDDM-KEWR

Flight info

Callsign UAL84
Flight time N/A
Altitude 36000
Route GIVMI1N/26R GIVMI Y101 INBED DCT REKDI DCT LOHRE DCT ADKUV DCT DENUT L610 KOPUL Q60 OKSAW DCT TEWXI DCT VATRY DCT DOGAL/M083F380 NATC ELSIR/N0480F400 N408A HULTN DCT CBIRD DCT HANAA FLOSI4
Aircraft B772/H-SDE2E3FGHIJ5LORVWXY/LB1D1

Departure

Time 2026-05-07 14:01
Airport Munich Airport (EDDM)

Arrival

Time N/A
Airport Newark Liberty International Airport (KEWR)
Time Latitude Longitude Altitude Speed Heading
2026-05-07 13:27 48.35470 11.79747 1490 ft 0 kts 83°
2026-05-07 13:44 48.35468 11.79729 1474 ft 2 kts 82°
2026-05-07 13:44 48.35464 11.79687 1474 ft 1 kts 81°
2026-05-07 13:45 48.35461 11.79663 1474 ft 1 kts 78°
2026-05-07 13:45 48.35457 11.79641 1474 ft 1 kts 73°
2026-05-07 13:45 48.35452 11.79620 1474 ft 1 kts 58°
2026-05-07 13:45 48.35443 11.79604 1474 ft 1 kts 30°
2026-05-07 13:46 48.35432 11.79596 1474 ft 1 kts
2026-05-07 13:46 48.35423 11.79596 1474 ft 1 kts 359°
2026-05-07 13:46 48.35415 11.79597 1475 ft 1 kts 356°
2026-05-07 13:47 48.35407 11.79598 1477 ft 1 kts 354°
2026-05-07 13:47 48.35406 11.79598 1477 ft 0 kts 354°
2026-05-07 13:51 48.35416 11.79596 1474 ft 4 kts 354°
2026-05-07 13:51 48.35444 11.79592 1474 ft 3 kts 353°
2026-05-07 13:51 48.35494 11.79583 1481 ft 14 kts 353°
2026-05-07 13:51 48.35581 11.79568 1476 ft 13 kts 353°
2026-05-07 13:52 48.35671 11.79552 1481 ft 13 kts 353°
2026-05-07 13:52 48.35700 11.79547 1478 ft 13 kts 353°
2026-05-07 13:52 48.35861 11.79519 1479 ft 13 kts 353°
2026-05-07 13:52 48.35943 11.79505 1487 ft 13 kts 354°
2026-05-07 13:53 48.36032 11.79490 1485 ft 13 kts 353°
2026-05-07 13:53 48.36119 11.79475 1478 ft 13 kts 353°
2026-05-07 13:53 48.36198 11.79481 1478 ft 10 kts 32°
2026-05-07 13:53 48.36222 11.79579 1476 ft 10 kts 84°
2026-05-07 13:54 48.36230 11.79686 1482 ft 10 kts 83°
2026-05-07 13:54 48.36239 11.79804 1478 ft 14 kts 83°
2026-05-07 13:54 48.36250 11.79948 1478 ft 18 kts 83°
2026-05-07 13:54 48.36261 11.80092 1490 ft 15 kts 83°
2026-05-07 13:55 48.36270 11.80198 1486 ft 15 kts 83°
2026-05-07 13:55 48.36287 11.80418 1486 ft 15 kts 83°
2026-05-07 13:55 48.36299 11.80577 1490 ft 15 kts 83°
2026-05-07 13:55 48.36311 11.80739 1480 ft 15 kts 84°
2026-05-07 13:56 48.36324 11.80906 1477 ft 15 kts 83°
2026-05-07 13:56 48.36336 11.81061 1490 ft 15 kts 84°
2026-05-07 13:56 48.36348 11.81226 1480 ft 15 kts 83°
2026-05-07 13:56 48.36361 11.81382 1482 ft 15 kts 84°
2026-05-07 13:57 48.36373 11.81542 1482 ft 15 kts 83°
2026-05-07 13:57 48.36385 11.81702 1487 ft 15 kts 84°
2026-05-07 13:57 48.36397 11.81860 1490 ft 13 kts 83°
2026-05-07 13:57 48.36398 11.81942 1490 ft 11 kts 90°
2026-05-07 13:58 48.36396 11.82013 1490 ft 10 kts 95°
2026-05-07 13:58 48.36430 11.82139 1481 ft 8 kts 20°
2026-05-07 13:58 48.36488 11.82132 1477 ft 7 kts 353°
2026-05-07 13:58 48.36542 11.82123 1477 ft 10 kts 354°
2026-05-07 13:59 48.36594 11.82105 1474 ft 12 kts 338°
2026-05-07 13:59 48.36668 11.82059 1480 ft 5 kts 331°
2026-05-07 13:59 48.36681 11.82017 1477 ft 5 kts 279°
2026-05-07 13:59 48.36679 11.81982 1480 ft 0 kts 262°
2026-05-07 14:00 48.36673 11.81909 1482 ft 24 kts 263°
2026-05-07 14:00 48.36626 11.81317 1479 ft 91 kts 263°
2026-05-07 14:00 48.36522 11.79956 1476 ft 153 kts 263°
2026-05-07 14:00 48.36362 11.78047 1705 ft 184 kts 265°
2026-05-07 14:01 48.36225 11.76285 2458 ft 179 kts 265°
2026-05-07 14:01 48.36123 11.75038 2978 ft 179 kts 264°
2026-05-07 14:01 48.35894 11.72251 3318 ft 209 kts 264°
2026-05-07 14:01 48.35681 11.69941 3644 ft 223 kts 263°
2026-05-07 14:02 48.35679 11.68057 3891 ft 229 kts 285°
2026-05-07 14:02 48.36663 11.65438 4372 ft 237 kts 301°
2026-05-07 14:02 48.37310 11.63920 4767 ft 241 kts 300°
2026-05-07 14:02 48.38285 11.61562 5402 ft 246 kts 300°
2026-05-07 14:03 48.39141 11.59478 6008 ft 250 kts 299°
2026-05-07 14:03 48.40059 11.57235 6548 ft 256 kts 299°
2026-05-07 14:03 48.41020 11.54889 7074 ft 260 kts 299°
2026-05-07 14:03 48.41652 11.53342 7434 ft 262 kts 299°
2026-05-07 14:04 48.43410 11.50393 8017 ft 273 kts 332°
2026-05-07 14:04 48.45373 11.49365 8543 ft 276 kts 339°
2026-05-07 14:04 48.47081 11.48537 9043 ft 278 kts 338°
2026-05-07 14:04 48.47636 11.48264 9213 ft 279 kts 338°
2026-05-07 14:05 48.48197 11.47985 9381 ft 279 kts 338°
2026-05-07 14:05 48.50064 11.47044 9929 ft 281 kts 338°
2026-05-07 14:06 48.51970 11.46065 10284 ft 291 kts 338°
2026-05-07 14:06 48.53956 11.45030 10396 ft 307 kts 338°
2026-05-07 14:06 48.56022 11.43947 10525 ft 324 kts 338°
2026-05-07 14:06 48.58241 11.42778 10662 ft 342 kts 338°
2026-05-07 14:07 48.59774 11.41970 10831 ft 352 kts 338°
2026-05-07 14:07 48.62381 11.40595 11354 ft 361 kts 338°
2026-05-07 14:07 48.64813 11.39304 11986 ft 366 kts 338°
2026-05-07 14:07 48.67391 11.37930 12752 ft 368 kts 338°
2026-05-07 14:08 48.68844 11.37108 13181 ft 369 kts 334°
2026-05-07 14:08 48.72026 11.34637 14045 ft 371 kts 324°
2026-05-07 14:08 48.74225 11.32398 14589 ft 374 kts 323°
2026-05-07 14:08 48.76425 11.30116 15139 ft 376 kts 323°
2026-05-07 14:09 48.77871 11.28630 15519 ft 378 kts 323°
2026-05-07 14:09 48.80097 11.26358 16068 ft 380 kts 323°
2026-05-07 14:09 48.82484 11.23943 16620 ft 384 kts 325°
2026-05-07 14:09 48.84756 11.22015 17092 ft 388 kts 331°
2026-05-07 14:10 48.87289 11.20383 17610 ft 392 kts 338°
2026-05-07 14:10 48.89861 11.19069 18101 ft 394 kts 339°
2026-05-07 14:10 48.92795 11.17607 18577 ft 398 kts 339°
2026-05-07 14:10 48.95192 11.16414 18964 ft 400 kts 339°
2026-05-07 14:11 48.97848 11.15081 19395 ft 402 kts 339°
2026-05-07 14:11 49.00501 11.13740 19812 ft 404 kts 339°
2026-05-07 14:11 49.03200 11.12370 20229 ft 407 kts 339°
2026-05-07 14:11 49.05889 11.11000 20658 ft 409 kts 339°
2026-05-07 14:12 49.08581 11.09624 21080 ft 411 kts 339°
2026-05-07 14:12 49.11330 11.08216 21474 ft 414 kts 339°
2026-05-07 14:12 49.14064 11.06845 21900 ft 416 kts 339°
2026-05-07 14:12 49.16824 11.05470 22312 ft 418 kts 340°
2026-05-07 14:13 49.19609 11.04077 22706 ft 421 kts 339°
2026-05-07 14:13 49.22402 11.02651 23123 ft 423 kts 339°
2026-05-07 14:13 49.25218 11.01197 23533 ft 426 kts 339°
2026-05-07 14:13 49.28015 10.99753 23882 ft 428 kts 339°
2026-05-07 14:14 49.30829 10.98302 24244 ft 429 kts 339°
2026-05-07 14:14 49.33685 10.96828 24599 ft 431 kts 340°
2026-05-07 14:14 49.36466 10.95138 24931 ft 431 kts 331°
2026-05-07 14:14 49.39000 10.92686 25250 ft 432 kts 322°
2026-05-07 14:15 49.41272 10.89655 25545 ft 434 kts 313°
2026-05-07 14:15 49.43246 10.86070 25800 ft 436 kts 308°
2026-05-07 14:15 49.45126 10.82408 26072 ft 439 kts 308°
2026-05-07 14:15 49.47013 10.78710 26436 ft 440 kts 308°
2026-05-07 14:16 49.48921 10.74995 26807 ft 442 kts 308°
2026-05-07 14:16 49.50844 10.71285 27124 ft 445 kts 308°
2026-05-07 14:16 49.52798 10.67536 27406 ft 448 kts 309°
2026-05-07 14:16 49.54771 10.63765 27733 ft 450 kts 309°
2026-05-07 14:17 49.56725 10.60031 28053 ft 452 kts 309°
2026-05-07 14:17 49.58716 10.56221 28369 ft 455 kts 309°
2026-05-07 14:17 49.60696 10.52428 28691 ft 457 kts 309°
2026-05-07 14:17 49.62690 10.48599 28934 ft 460 kts 309°
2026-05-07 14:18 49.64698 10.44732 29241 ft 462 kts 309°
2026-05-07 14:18 49.66649 10.40736 29561 ft 463 kts 305°
2026-05-07 14:18 49.68487 10.36631 29736 ft 468 kts 304°
2026-05-07 14:18 49.70304 10.32468 30065 ft 468 kts 304°
2026-05-07 14:19 49.72131 10.28254 30377 ft 468 kts 304°
2026-05-07 14:19 49.75793 10.19835 30714 ft 473 kts 304°
2026-05-07 14:19 49.77632 10.15632 31014 ft 472 kts 303°
2026-05-07 14:20 49.79472 10.11433 31342 ft 471 kts 303°
2026-05-07 14:20 49.81323 10.07206 31624 ft 472 kts 303°
2026-05-07 14:20 49.83163 10.02999 31852 ft 473 kts 303°
2026-05-07 14:20 49.85006 9.98779 32117 ft 473 kts 303°
2026-05-07 14:21 49.86849 9.94552 32397 ft 473 kts 303°
2026-05-07 14:21 49.88708 9.90280 32672 ft 473 kts 303°
2026-05-07 14:21 49.90540 9.86062 32931 ft 473 kts 303°
2026-05-07 14:21 49.92368 9.81847 33197 ft 473 kts 303°
2026-05-07 14:22 49.94220 9.77571 33499 ft 472 kts 303°
2026-05-07 14:22 49.96055 9.73328 33797 ft 472 kts 303°
2026-05-07 14:22 49.97876 9.69113 34056 ft 472 kts 303°
2026-05-07 14:22 49.99708 9.64868 34273 ft 472 kts 303°
2026-05-07 14:23 50.01534 9.60628 34492 ft 472 kts 303°
2026-05-07 14:23 50.03378 9.56336 34691 ft 473 kts 302°
2026-05-07 14:23 50.05126 9.52020 34896 ft 472 kts 297°
2026-05-07 14:23 50.06588 9.47424 35107 ft 472 kts 292°
2026-05-07 14:24 50.07788 9.42683 35323 ft 472 kts 287°
2026-05-07 14:24 50.08700 9.37808 35519 ft 471 kts 284°
2026-05-07 14:24 50.09552 9.32866 35710 ft 472 kts 284°
2026-05-07 14:24 50.10387 9.27926 35911 ft 472 kts 284°
2026-05-07 14:25 50.11226 9.22973 35987 ft 474 kts 284°
2026-05-07 14:25 50.12936 9.13001 36031 ft 476 kts 284°
2026-05-07 14:26 50.14636 9.03199 36039 ft 471 kts 284°
2026-05-07 14:26 50.16339 8.93372 36040 ft 468 kts 284°
2026-05-07 14:27 50.18031 8.83553 36050 ft 467 kts 284°
2026-05-07 14:27 50.19715 8.73714 36059 ft 467 kts 284°
2026-05-07 14:28 50.21103 8.65561 36047 ft 468 kts 284°
2026-05-07 14:28 50.22780 8.55661 36057 ft 469 kts 284°
2026-05-07 14:29 50.24445 8.45771 36048 ft 470 kts 284°
2026-05-07 14:29 50.26098 8.35900 36046 ft 471 kts 284°
2026-05-07 14:30 50.27753 8.25961 36048 ft 472 kts 283°
2026-05-07 14:30 50.29401 8.16002 36050 ft 473 kts 283°
2026-05-07 14:31 50.31038 8.06048 36048 ft 473 kts 283°
2026-05-07 14:31 50.32677 7.96029 36043 ft 473 kts 283°
2026-05-07 14:32 50.34298 7.86062 36044 ft 473 kts 283°
2026-05-07 14:32 50.35905 7.76121 36043 ft 472 kts 283°
2026-05-07 14:33 50.37479 7.66327 36040 ft 471 kts 283°
2026-05-07 14:33 50.39076 7.56332 36043 ft 470 kts 283°
2026-05-07 14:34 50.40658 7.46369 36047 ft 469 kts 283°
2026-05-07 14:34 50.42221 7.36469 36040 ft 469 kts 283°
2026-05-07 14:35 50.43776 7.26561 36043 ft 468 kts 283°
2026-05-07 14:35 50.45344 7.16512 36041 ft 468 kts 283°
2026-05-07 14:36 50.46875 7.06649 36047 ft 468 kts 283°
2026-05-07 14:36 50.48418 6.96658 36044 ft 468 kts 283°
2026-05-07 14:37 50.49948 6.86685 36040 ft 468 kts 282°
2026-05-07 14:37 50.52988 6.72131 36049 ft 469 kts 290°
2026-05-07 14:38 50.55384 6.62561 36043 ft 469 kts 290°
2026-05-07 14:38 50.57758 6.52999 36040 ft 469 kts 290°
2026-05-07 14:39 50.60112 6.43398 36042 ft 469 kts 290°
2026-05-07 14:39 50.62454 6.33766 36039 ft 469 kts 289°
2026-05-07 14:40 50.64773 6.24183 36039 ft 468 kts 289°
2026-05-07 14:40 50.67094 6.14554 36043 ft 468 kts 289°
2026-05-07 14:41 50.69390 6.04985 36044 ft 468 kts 289°
2026-05-07 14:41 50.71697 5.95334 36045 ft 467 kts 289°
2026-05-07 14:42 50.73992 5.85684 36049 ft 467 kts 289°
2026-05-07 14:42 50.76270 5.76067 36051 ft 467 kts 289°
2026-05-07 14:43 50.78524 5.66508 36048 ft 467 kts 289°
2026-05-07 14:43 50.80794 5.56835 36050 ft 467 kts 289°
2026-05-07 14:44 50.83058 5.47148 36055 ft 467 kts 289°
2026-05-07 14:44 50.85305 5.37493 36072 ft 467 kts 288°
2026-05-07 14:45 50.87549 5.27803 36071 ft 467 kts 288°
2026-05-07 14:45 50.89777 5.18135 36072 ft 467 kts 288°
2026-05-07 14:46 50.92009 5.08412 36072 ft 467 kts 288°
2026-05-07 14:46 50.94223 4.98723 36073 ft 467 kts 288°
2026-05-07 14:47 50.96415 4.89084 36073 ft 467 kts 288°
2026-05-07 14:47 50.98626 4.79316 36077 ft 467 kts 288°
2026-05-07 14:48 51.00813 4.69609 36077 ft 468 kts 288°
2026-05-07 14:48 51.03008 4.59822 36076 ft 468 kts 288°
2026-05-07 14:49 51.05179 4.50100 36075 ft 468 kts 288°
2026-05-07 14:49 51.07355 4.40307 36075 ft 468 kts 288°
2026-05-07 14:50 51.09500 4.30611 36077 ft 468 kts 288°
2026-05-07 14:50 51.11301 4.22435 36077 ft 468 kts 287°
2026-05-07 14:51 51.13454 4.12622 36074 ft 468 kts 287°
2026-05-07 14:51 51.15587 4.02853 36072 ft 468 kts 287°
2026-05-07 14:52 51.17731 3.92990 36075 ft 468 kts 287°
2026-05-07 14:52 51.19842 3.83239 36070 ft 468 kts 287°
2026-05-07 14:53 51.21974 3.73357 36074 ft 468 kts 287°
2026-05-07 14:53 51.23958 3.63497 36082 ft 467 kts 282°
2026-05-07 14:54 51.25269 3.53326 36074 ft 467 kts 279°
2026-05-07 14:54 51.26570 3.43110 36077 ft 467 kts 280°
2026-05-07 14:55 51.27891 3.32984 36081 ft 467 kts 280°
2026-05-07 14:55 51.29204 3.22823 36077 ft 468 kts 280°
2026-05-07 14:56 51.30521 3.12594 36079 ft 468 kts 280°
2026-05-07 14:56 51.31824 3.02414 36071 ft 468 kts 280°
2026-05-07 14:57 51.33120 2.92230 36077 ft 467 kts 280°
2026-05-07 14:57 51.34409 2.82052 36076 ft 467 kts 279°
2026-05-07 14:58 51.35688 2.71805 36078 ft 467 kts 279°
2026-05-07 14:58 51.36933 2.61581 36077 ft 467 kts 279°
2026-05-07 14:59 51.38177 2.51324 36079 ft 467 kts 279°
2026-05-07 14:59 51.39414 2.41110 36082 ft 467 kts 279°
2026-05-07 15:00 51.40652 2.30838 36083 ft 467 kts 279°
2026-05-07 15:00 51.41865 2.20617 36085 ft 467 kts 279°
2026-05-07 15:01 51.43080 2.10326 36085 ft 468 kts 279°
2026-05-07 15:01 51.44283 2.00073 36084 ft 468 kts 279°
2026-05-07 15:02 51.45569 1.89849 36085 ft 468 kts 280°
2026-05-07 15:02 51.46823 1.79597 36082 ft 467 kts 278°
2026-05-07 15:03 51.47972 1.69303 36093 ft 467 kts 278°
2026-05-07 15:03 51.49132 1.59053 36084 ft 467 kts 278°
2026-05-07 15:04 51.50295 1.48721 36079 ft 467 kts 278°
2026-05-07 15:04 51.51445 1.38462 36083 ft 468 kts 278°
2026-05-07 15:05 51.52590 1.28205 36079 ft 468 kts 278°
2026-05-07 15:05 51.53729 1.17926 36075 ft 468 kts 278°
2026-05-07 15:06 51.54658 1.07573 36067 ft 467 kts 274°
2026-05-07 15:06 51.55294 0.97112 36074 ft 467 kts 274°
2026-05-07 15:07 51.55909 0.86721 36076 ft 468 kts 274°
2026-05-07 15:07 51.56546 0.76322 36076 ft 468 kts 274°
2026-05-07 15:08 51.57192 0.65844 36075 ft 468 kts 274°
2026-05-07 15:08 51.57830 0.55366 36071 ft 468 kts 274°
2026-05-07 15:09 51.58453 0.44955 36079 ft 468 kts 274°
2026-05-07 15:09 51.59071 0.34465 36076 ft 468 kts 274°
2026-05-07 15:10 51.59675 0.24049 36073 ft 468 kts 274°
2026-05-07 15:10 51.60269 0.13671 36072 ft 468 kts 273°
2026-05-07 15:11 51.60791 0.04441 36078 ft 468 kts 273°
2026-05-07 15:11 51.61373 -0.05956 36077 ft 468 kts 273°
2026-05-07 15:12 51.61952 -0.16392 36056 ft 468 kts 274°
2026-05-07 15:12 51.62478 -0.25117 36069 ft 468 kts 274°
2026-05-07 15:13 51.63219 -0.37186 36058 ft 467 kts 274°
2026-05-07 15:13 51.63744 -0.45891 36045 ft 467 kts 274°
2026-05-07 15:14 51.64359 -0.56324 36045 ft 467 kts 274°
2026-05-07 15:14 51.64965 -0.66776 36040 ft 468 kts 273°
2026-05-07 15:15 51.65560 -0.77197 36036 ft 468 kts 273°
2026-05-07 15:15 51.66147 -0.87632 36026 ft 468 kts 273°
2026-05-07 15:16 51.66724 -0.98063 36028 ft 468 kts 273°
2026-05-07 15:16 51.67296 -1.08565 36023 ft 468 kts 273°
2026-05-07 15:17 51.67855 -1.19012 36025 ft 468 kts 273°
2026-05-07 15:17 51.68408 -1.29476 36023 ft 468 kts 273°
2026-05-07 15:18 51.68952 -1.39947 36027 ft 468 kts 273°
2026-05-07 15:18 51.69487 -1.50356 36023 ft 467 kts 273°
2026-05-07 15:19 51.70017 -1.60813 36023 ft 467 kts 274°
2026-05-07 15:19 51.71420 -1.71056 36045 ft 470 kts 286°
2026-05-07 15:20 51.74054 -1.80804 36043 ft 472 kts 295°
2026-05-07 15:20 51.77059 -1.90196 36043 ft 473 kts 295°
2026-05-07 15:21 51.80027 -1.99735 36029 ft 474 kts 294°
2026-05-07 15:21 51.82613 -2.09500 36023 ft 472 kts 288°
2026-05-07 15:22 51.84879 -2.19500 36023 ft 472 kts 288°
2026-05-07 15:22 51.87134 -2.29490 36021 ft 473 kts 288°
2026-05-07 15:23 51.89424 -2.39547 36023 ft 473 kts 288°
2026-05-07 15:23 51.91710 -2.49558 36021 ft 473 kts 288°
2026-05-07 15:24 51.93980 -2.59537 36017 ft 473 kts 288°
2026-05-07 15:24 51.96242 -2.69536 36023 ft 473 kts 288°
2026-05-07 15:25 51.98509 -2.79606 36032 ft 473 kts 288°